TimeMST,TemperatureF,Dew PointF,Humidity,Sea Level PressureIn,VisibilityMPH,Wind Direction,Wind SpeedMPH,Gust SpeedMPH,PrecipitationIn,Events,Conditions,WindDirDegrees,DateUTC
12:56 AM,30.9,28.9,92,30.34,10.0,SW,5.8,-,N/A,,Clear,230,2013-11-27 07:56:00
1:56 AM,30.9,28.9,92,30.33,10.0,Calm,Calm,-,N/A,,Clear,0,2013-11-27 08:56:00
2:56 AM,30.9,30.0,96,30.32,10.0,Calm,Calm,-,N/A,,Clear,0,2013-11-27 09:56:00
3:56 AM,28.9,28.0,96,30.32,7.0,Calm,Calm,-,N/A,,Clear,0,2013-11-27 10:56:00
4:56 AM,28.9,27.0,92,30.32,7.0,Calm,Calm,-,N/A,,Clear,0,2013-11-27 11:56:00
5:56 AM,28.0,26.1,92,30.33,10.0,Calm,Calm,-,N/A,,Clear,0,2013-11-27 12:56:00
6:56 AM,28.0,26.1,92,30.35,10.0,Calm,Calm,-,N/A,,Clear,0,2013-11-27 13:56:00
7:56 AM,28.9,28.0,96,30.37,10.0,Calm,Calm,-,N/A,,Clear,0,2013-11-27 14:56:00
8:56 AM,33.1,30.9,92,30.36,10.0,ESE,3.5,-,N/A,,Clear,120,2013-11-27 15:56:00
9:56 AM,37.0,30.9,79,30.33,10.0,East,5.8,-,N/A,,Clear,80,2013-11-27 16:56:00
10:56 AM,41.0,30.9,67,30.30,10.0,East,5.8,-,N/A,,Clear,80,2013-11-27 17:56:00
11:56 AM,44.1,30.0,58,30.25,10.0,ENE,5.8,-,N/A,,Clear,60,2013-11-27 18:56:00
12:56 PM,46.0,30.9,56,30.20,10.0,East,8.1,-,N/A,,Clear,80,2013-11-27 19:56:00
1:56 PM,46.0,32.0,58,30.18,10.0,East,4.6,-,N/A,,Clear,100,2013-11-27 20:56:00
2:56 PM,46.9,32.0,56,30.16,10.0,ESE,5.8,-,N/A,,Clear,110,2013-11-27 21:56:00
3:56 PM,46.9,33.1,59,30.15,10.0,ESE,4.6,-,N/A,,Clear,110,2013-11-27 22:56:00
4:56 PM,45.0,34.0,65,30.17,10.0,SSE,4.6,-,N/A,,Clear,160,2013-11-27 23:56:00
5:56 PM,39.9,35.1,83,30.19,10.0,SW,3.5,-,N/A,,Clear,230,2013-11-28 00:56:00
6:56 PM,36.0,33.1,89,30.22,10.0,West,5.8,-,N/A,,Clear,280,2013-11-28 01:56:00
7:56 PM,35.1,32.0,89,30.21,10.0,NW,3.5,-,N/A,,Clear,310,2013-11-28 02:56:00
8:56 PM,33.1,30.9,92,30.21,10.0,Calm,Calm,-,N/A,,Clear,0,2013-11-28 03:56:00
9:56 PM,32.0,30.9,96,30.20,10.0,West,4.6,-,N/A,,Clear,260,2013-11-28 04:56:00
10:56 PM,32.0,30.9,96,30.19,10.0,WSW,5.8,-,N/A,,Clear,250,2013-11-28 05:56:00
11:56 PM,32.0,30.0,92,30.17,10.0,WSW,5.8,-,N/A,,Clear,250,2013-11-28 06:56:00